DB0WGS-1 Weather Reports


Display with metric or nautical units.
time (UTC)temp
F
wind
direction
speed
MPH
gust
MPH
rain 1hr
in
rain 24hr
in
rain mn
in
humidity
%
barometer
mb
20260506034132 -40 6.0 9.0 0.00 0.05 0.05 14 1007.0
20260506032927 -40 5.0 8.0 0.00 0.05 0.05 14 1006.9
20260506031720 -40 5.0 6.0 0.00 0.05 0.05 14 1006.8
20260506030514 -40 5.0 8.0 0.00 0.05 0.05 14 1006.9
20260506025308 -40 5.0 8.0 0.00 0.05 0.05 14 1006.9
20260506024103 -40 5.0 8.0 0.00 0.05 0.05 14 1007.0
20260506022855 -40 5.0 8.0 0.00 0.05 0.05 14 1006.9
20260506021651 -40 4.0 8.0 0.00 0.05 0.05 14 1006.9
20260506020445 -40 4.0 5.0 0.00 0.05 0.05 14 1006.9
20260506015237 -40 4.0 6.0 0.00 0.05 0.05 14 1007.0
20260506014031 -40 4.0 6.0 0.00 0.05 0.05 14 1007.0
20260506012902 -40 3.0 5.0 0.00 0.05 0.05 14 1006.9
20260506012825 -40 3.0 5.0 0.00 0.05 0.05 14 1006.9
20260506011619 -40 3.0 6.0 0.00 0.05 0.05 14 1006.8
20260506010413 -40 5.0 9.0 0.00 0.05 0.05 14 1006.9
20260506005207 -40 6.0 10.0 0.00 0.05 0.05 14 1006.9
20260506004001 -40 7.0 12.0 0.00 0.05 0.05 14 1006.9
20260506002755 -40 6.0 10.0 0.00 0.05 0.05 14 1007.1
20260506001639 -40 7.0 11.0 0.00 0.05 0.05 14 1007.1
20260506001549 -40 7.0 11.0 0.00 0.05 0.05 14 1007.1
20260506000343 -40 6.0 10.0 0.00 0.05 0.05 14 1007.1
20260505235136 -40 7.0 11.0 0.00 0.05 0.05 14 1007.0
20260505233931 -40 8.0 13.0 0.00 0.05 0.05 14 1007.0
20260505232724 -40 10.0 18.0 0.00 0.05 0.05 14 1006.9
20260505231518 -40 9.0 15.0 0.00 0.05 0.05 14 1006.8
20260505230315 -40 9.0 17.0 0.00 0.05 0.05 14 1006.9
20260505225106 -40 8.0 16.0 0.00 0.05 0.05 14 1006.9
20260505223901 -40 8.0 15.0 0.00 0.05 0.05 14 1006.6
20260505222654 -40 8.0 12.0 0.00 0.05 0.05 14 1006.5
20260505221448 -40 6.0 11.0 0.00 0.05 0.05 14 1006.6
20260505220242 -40 5.0 9.0 0.00 0.05 0.05 14 1006.4
20260505215036 -40 5.0 10.0 0.00 0.05 0.05 14 1006.3
20260505213832 -40 5.0 8.0 0.00 0.05 0.05 14 1006.2
20260505212623 -40 4.0 11.0 0.00 0.05 0.05 14 1006.1
20260505211417 -40 3.0 5.0 0.00 0.05 0.05 14 1006.0
20260505210212 -40 5.0 6.0 0.00 0.05 0.05 14 1005.9
20260505205005 -40 4.0 9.0 0.02 0.05 0.05 14 1005.8
20260505203759 -40 6.0 8.0 0.03 0.05 0.05 14 1005.5
20260505202553 -40 7.0 10.0 0.04 0.05 0.05 14 1005.4
20260505201347 -40 7.0 9.0 0.05 0.05 0.05 14 1005.4
20260505200140 -40 5.0 9.0 0.05 0.05 0.05 14 1005.8
20260505194935 -40 8.0 12.0 0.03 0.03 0.03 14 1005.7
20260505193729 -40 8.0 13.0 0.02 0.02 0.02 14 1005.6
20260505192523 -40 9.0 13.0 0.01 0.01 0.01 14 1005.5
20260505191316 -40 9.0 13.0 0.00 0.00 0.00 14 1005.3
20260505190111 -40 11.0 17.0 0.00 0.00 0.00 14 1005.2
20260505184906 -40 12.0 20.0 0.00 0.00 0.00 14 1005.0
20260505183706 -40 12.0 22.0 0.00 0.00 0.00 14 1004.8
20260505182452 -40 12.0 25.0 0.00 0.00 0.00 14 1004.6
20260505181246 -40 14.0 22.0 0.00 0.00 0.00 14 1004.2
20260505180040 -40 16.0 29.0 0.00 0.00 0.00 14 1003.6
20260505174834 -40 6.0 16.0 0.00 0.00 0.00 14 1003.4
20260505173627 -40 6.0 9.0 0.00 0.00 0.00 14 1003.4
20260505172424 -40 5.0 8.0 0.00 0.00 0.00 14 1003.4
20260505171215 -40 6.0 9.0 0.00 0.00 0.00 14 1003.4
20260505170010 -40 5.0 8.0 0.00 0.00 0.00 14 1003.3
20260505164803 -40 5.0 8.0 0.00 0.00 0.00 14 1003.3
20260505163558 -40 5.0 8.0 0.00 0.00 0.00 14 1003.4
20260505162429 -40 6.0 9.0 0.00 0.00 0.00 14 1003.5
20260505162352 -40 6.0 9.0 0.00 0.00 0.00 14 1003.5
20260505161146 -40 6.0 9.0 0.00 0.00 0.00 14 1003.5
20260505152321 -40 5.0 11.0 0.00 0.00 0.00 14 1003.8
20260505151114 -40 4.0 9.0 0.00 0.00 0.00 14 1004.0
20260505124602 -40 2.0 6.0 0.00 0.00 0.00 14 1005.6
20260505123355 -40 6.0 11.0 0.00 0.00 0.00 14 1005.8
20260505122149 -40 5.0 10.0 0.00 0.00 0.00 14 1005.8
20260505120944 -40 4.0 9.0 0.00 0.00 0.00 14 1006.0
20260505115737 -40 5.0 10.0 0.00 0.00 0.00 14 1006.0
20260505114535 -40 5.0 11.0 0.00 0.00 0.00 14 1006.1
20260505113325 -40 5.0 10.0 0.00 0.00 0.00 14 1006.2
20260505112118 -40 5.0 9.0 0.00 0.00 0.00 14 1006.3
20260505110913 -40 6.0 10.0 0.00 0.00 0.00 14 1006.3
20260505102049 -40 5.0 9.0 0.00 0.00 0.00 14 1006.7
20260505100843 -40 5.0 10.0 0.00 0.00 0.00 14 1006.8
20260505095637 -40 6.0 13.0 0.00 0.00 0.00 14 1006.9
20260505094431 -40 7.0 10.0 0.00 0.00 0.00 14 1007.0
20260505093224 -40 7.0 11.0 0.00 0.00 0.00 14 1007.1
20260505092018 -40 6.0 10.0 0.00 0.00 0.00 14 1007.2
20260505090813 -40 7.0 11.0 0.00 0.00 0.00 14 1007.3
20260505085606 -40 7.0 10.0 0.00 0.00 0.00 14 1007.4
20260505084401 -40 7.0 10.0 0.00 0.00 0.00 14 1007.3
20260505083154 -40 7.0 10.0 0.00 0.00 0.00 14 1007.3
20260505081952 -40 6.0 10.0 0.00 0.00 0.00 14 1007.3
20260505080747 -40 6.0 9.0 0.00 0.00 0.00 14 1007.4
20260505075536 -40 5.0 9.0 0.00 0.00 0.00 14 1007.5
20260505074329 -40 4.0 8.0 0.00 0.00 0.00 14 1007.6
20260505073128 -40 3.0 8.0 0.00 0.00 0.00 14 1007.6
20260505071918 -40 3.0 5.0 0.00 0.00 0.00 14 1007.6
20260505070711 -40 3.0 5.0 0.00 0.00 0.00 14 1007.5
20260505065505 -40 2.0 5.0 0.00 0.00 0.00 14 1007.6
20260505064301 -40 3.0 5.0 0.00 0.00 0.00 14 1007.7
20260505063053 -40 2.0 4.0 0.00 0.00 0.00 14 1007.7
20260505061847 -40 1.0 3.0 0.00 0.00 0.00 14 1007.7
20260505060641 -40 1.0 3.0 0.00 0.00 0.00 14 1007.8
20260505055435 -40 2.0 3.0 0.00 0.00 0.00 14 1007.8
20260505054230 -40 3.0 4.0 0.00 0.00 0.00 14 1007.9
20260505053022 -40 3.0 4.0 0.00 0.00 0.00 14 1007.8
20260505051816 -40 1.0 3.0 0.00 0.00 0.00 14 1007.7
20260505050613 -40 1.0 3.0 0.00 0.00 0.00 14 1007.7
20260505041746 -40 1.0 4.0 0.00 0.00 0.00 14 1007.9
20260505040540 -40 1.0 3.0 0.00 0.00 0.00 14 1008.0
20260505035334 -40 1.0 2.0 0.00 0.00 0.00 14 1008.0